User: anonymous   Login
Location: Unspecified
(0.0000°N, 0.0000°E)
Time: 10:47:50
(UTC+00:00)
Language:

XIAOXIANG 2 - Orbit

View from above orbital plane
View from above orbital plane
View from above satellite
View from above satellite

Ground track
Ground track

The orbit data is extracted from the following two-line orbital elements,

1 43155U 18008A   19112.19784572  .00001056  00000-0  66751-4 0  9993
2 43155  97.4900 185.9403 0018691 157.4992 281.6492 15.11045143 69148
Epoch (UTC): 22 April 2019 04:44:53
Eccentricity: 0.0018691
inclination: 97.4900°
perigee height: 520 km
apogee height: 546 km
right ascension of ascending node: 185.9403°
argument of perigee: 157.4992°
revolutions per day: 15.11045143
mean anomaly at epoch: 281.6492°
orbit number at epoch: 6914

The dashed part of the orbit path shows where the satellite is in the earth's shadow,  

DLR